Location: Franzen
(48.6167°N, 15.3833°E)
Time: 10:55:00
(UTC+00:00)

NOSS 3-1 (A) - Pass Details

Date: 22 April 2021
Orbit: 733 x 1479 km, 63.4° (Epoch: 01 May)

Event Time Altitude Azimuth Distance (km) Brightness Sun altitude
Rises 20:44:02 0° 318° (NW) 3,860 8.1 -22.2°
Reaches altitude 10° 20:46:31 10° 320° (NW) 3,002 7.2 -22.4°
Maximum altitude 20:53:52 75° 46° (NE) 1,316 4.1 -23.1°
Enters shadow 20:57:37 37° 124° (SE) 1,969 4.6 -23.4°
